Preview of NWS' New Version of Forecast
This preview is not operational and should not be used for support decisions.

Regional Weather Roundup (RWR)

Issued by National Weather Service (NWS)

                            
000
ASUS43 KDMX 211101
RWRIA 

WEATHER ROUNDUP FOR IOWA
NATIONAL WEATHER SERVICE DES MOINES IA
500 AM CST THU FEB 21 2019

NOTE: "FAIR" INDICATES FEW OR NO CLOUDS BELOW 12,000 FEET WITH NO
SIGNIFICANT WEATHER AND/OR OBSTRUCTIONS TO VISIBILITY.

* - THESE STATIONS ARE NOT NWS STATIONS...THUS NOT UNDER NWS
QUALITY CONTROL.  THEY ALSO DO NOT REPORT WEATHER SUCH 
AS PRECIPITATION OR FOG.  

IAZ001>003-012>014-020>022-031>034-043>046-211200-
   NORTHWEST IOWA
  
CITY           SKY/WX    TMP DP  RH WIND       PRES   REMARKS
CARROLL *      PTCLDY     5   5 100 W5        30.05R WCI  -4          
CHEROKEE *     CLOUDY     2   1  93 CALM      30.03R FOG              
DENISON *      PTCLDY     5   3  92 CALM      30.07R FOG              
LE MARS *      FOG       -2  -4  92 CALM      30.04R VSB 3/4          
ORANGE CITY *  CLOUDY     3   1  92 W6        30.01R WCI  -8          
SHELDON *      CLOUDY     1   1 100 SW8       29.99R WCI -12          
SIOUX CITY     CLOUDY    -5  -7  91 E3        30.04R                  
SPENCER        CLOUDY     4   0  83 SW9       30.00R WCI -10          
STORM LAKE *   CLOUDY     5   5 100 W12       30.01R WCI -11          
$$
 
IAZ055>058-069>071-079>083-090>094-211200-
   SOUTHWEST IOWA
  
CITY           SKY/WX    TMP DP  RH WIND       PRES   REMARKS
ATLANTIC *     CLOUDY     0   0 100 CALM      30.07S FOG              
AUDUBON *      CLOUDY     5   1  85 CALM      30.05S FOG              
CLARINDA *     CLOUDY    -2  -6  84 CALM      30.12R                  
COUNCIL BLFS * CLOUDY    14  14 100 SW7       30.06R WCI   4          
CRESTON *      CLOUDY    10   9  92 W7        30.07S WCI   0          
HARLAN  *      CLOUDY     5   5 100 SW3       30.06S                  
LAMONI         CLOUDY    14  10  84 W6        30.07R WCI   5          
RED OAK *      CLOUDY     1   0  92 CALM      30.09S                  
SHENANDOAH *   CLOUDY     1   0  92 E3        30.10S                  
$$
 
IAZ047>049-059>061-072>074-084-211200-
   CENTRAL IOWA
  
CITY           SKY/WX    TMP DP  RH WIND       PRES   REMARKS
AMES           PTCLDY     8   6  92 W12       30.07R FOG     WCI  -7  
ANKENY *       CLOUDY    16  12  86 W8        30.09R WCI   5          
BOONE *        MOCLDY    10  10 100 W8        30.05R WCI  -1          
CHARITON *     CLOUDY    14  12  92 SW6       30.08R WCI   5          
DES MOINES     CLOUDY    13  10  88 W6        30.08R WCI   4          
GRINNELL*      CLOUDY    15  13  91 W8        30.06R WCI   4          
KNOXVILLE *    CLOUDY    12  12 100 W7        30.08R WCI   2          
MARSHALLTOWN   PTCLDY    10   8  92 W9        30.05R FOG     WCI  -3  
NEWTON *       CLOUDY    12  12 100 SW7       30.07R FOG     WCI   2  
PELLA *        CLOUDY    15  13  92 W5        30.10R WCI   7          
PERRY *        FAIR       2   0  91 SW7       30.07R FOG     WCI -11  
$$
 
IAZ004>006-015-016-023>025-035-036-211200-
   NORTH CENTRAL IOWA
  
CITY           SKY/WX    TMP DP  RH WIND       PRES   REMARKS
ALGONA *       CLOUDY     3   3 100 SW6       29.99R WCI  -8          
CLARION *      PTCLDY     1   0  92 SW8       30.03R FOG     WCI -12  
ESTHERVILLE    CLOUDY     0  -3  87 SW8       29.99R WCI -14          
FORT DODGE *   PTCLDY     4   2  91 SW7       30.04R WCI  -8          
MASON CITY     CLOUDY     8   6  92 W12       30.01R WCI  -7          
FOREST CITY *  FAIR       7   5  92 SW6       29.99R WCI  -3          
IOWA FALLS *   FAIR       4   1  87 SW5       30.05R WCI  -6          
$$

IAZ007>011-017>019-026>030-037>042-050>054-066-211200-
   NORTHEAST IOWA
  
CITY           SKY/WX    TMP DP  RH WIND       PRES   REMARKS
CEDAR RAPIDS   FAIR      10   9  95 W9        30.06R FOG     WCI  -3  
CHARLES CITY * FAIR      10   7  85 W13       30.01R WCI  -5          
CLINTON *      FAIR      14  12  92 W10       30.07R WCI   1          
DECORAH *      FAIR      12  12 100 SW10      29.98R WCI  -1          
DUBUQUE        FAIR      15  11  83 W9        30.01R WCI   3          
OELWEIN *      FAIR       7   7 100 W13       30.03R WCI  -9          
WATERLOO       FAIR      12   8  84 W9        30.05R WCI   0          
$$
 
IAZ064-065-067-068-078-211200-
   EAST CENTRAL IOWA
  
CITY           SKY/WX    TMP DP  RH WIND       PRES   REMARKS
DAVENPORT      FAIR      21  15  78 W10       30.09R WCI  10          
IOWA CITY      FAIR      14  11  87 W7        30.10R WCI   4          
MT. PLEASANT * CLOUDY    23  21  93 W6        30.10R WCI  16          
MUSCATINE *    FAIR      23  16  74 W8        30.10R WCI  14          
QUAD CITIES    FAIR      24  18  77 W9        30.07R WCI  14          
$$
 
IAZ062-063-075>077-085>089-095>099-211200-
   SOUTHEAST IOWA
  
CITY           SKY/WX    TMP DP  RH WIND       PRES   REMARKS
BURLINGTON     PTCLDY    26  18  71 W8        30.09R WCI  18          
FAIRFIELD *    CLOUDY    19  14  79 W8        30.08R WCI   9          
FORT MADISON * CLOUDY    25  19  80 W7        30.11R WCI  17          
KEOKUK *       CLOUDY    25  21  86 W8        30.10R WCI  16          
OSKALOOSA *    FAIR      13  11  90 W8        30.09R WCI   2          
OTTUMWA        CLOUDY    15  11  83 W7        30.08R WCI   5          
WASHINGTON *   PTCLDY    19  18  93 W12       30.10R WCI   7          
$$

ABBREVIATIONS USED IN REMARKS
   TC - TEMPERATURES IN CELSIUS
  WCI - WIND CHILL INDEX
   HX - HEAT INDEX
  VSB - VISIBILITY  
$$